NOAA 17 DEB, 48707

Orbit data source: Space-Track

NOAA 17 DEB, 48707 is space debris in SSO originally from a launch on Mon, 24 Jun 2002 UTC launched from the Air Force Western Test Range (AFWTR). Debris objects in space refer to the collection of defunct objects orbiting the Earth. Examples of debris include non-operational satellites, rocket bodies, and fragments generated from explosions, collisions, or faulty payload assembly.

Loading next visibility...
Identifier
48707, 2002-032AQ
Orbit
SSO
Country
Flag of USUS
Related business
Manufacturer
Unknown
Mission
Spacecraft
Bus & Motor
Unknown
Mass
Unknown
Launch date (UTC)
2002-06-24 (24 years ago)
Launch vehicle
Unknown
Launch site
Air Force Western Test Range (AFWTR)
Object type
Payload
Rocket body
Debris
Shape & HBR
Unknown shape, 0.1 m
Radar Cross Section
Medium (>0.1 m² and <1 m²)

Expand to show TLE details & history
Last TLE update: 2 days ago

TLE from 2 days ago
0 NOAA 17 DEB
1 48707U 02032AQ  26171.47527263  .00009556  00000-0  12446-2 0  9990
2 48707  98.7647 241.0754 0032707 283.2958  76.4604 14.80473532279370
Epoch: 2026-06-20T11:24Z
TLE epoch observation values (Epoch: 2026-06-20T11:24:23.555Z)
Latitude
-0.00009°
Longitude
161.2879°
Altitude
625.53 km
Speed
7.549 km/s
True Right ascension
16h 04m 18s
True Declination
0° 00' 00"
Sunlit
Object was in full shadow at epoch
Visualization orbit readout
Latitude
Unknown
Longitude
Unknown
Altitude
Unknown
Speed
Unknown
Apparent Right ascension
Unknown
Apparent Declination
Unknown
Sunlit
N/A
Visualization observer readout
Local Sidereal Time
23:19:47
Azimuth
Unknown
Elevation
Unknown
Doppler factor
Unknown
Orbital elements
Apogee altitude
647.816 km
Perigee altitude
602.006 km
Semi-major axis
7,003.048 km
Eccentricity
0.00327
Inclination
98.7647°
RAAN
241.0754°
Arg. of periapsis
283.2958°
True anomaly
76.82513°
Mean anomaly
76.4604°
Eccentric anomaly
76.64273°
Mean motion
3.7035 °/min
Orbital period
97.21 mins
BSTAR
0.0012446
Loading maneuver chart data...
Computing Atmospheric mass density...

Documentation

Showing up to 5 results
|